Location: Rounton
(54.4000°N, 1.3500°W)
Time: 03:08:50
(UTC+01:00)

deb Delta 126 - Visible Passes

Search period start: 01 July 2022 00:00
Search period end: 11 July 2022 00:00
Orbit: 1114 x 1976 km, 101.5° (Epoch: 30 June)

Date Brightness Start Highest point End Pass type
(mag) Time Alt. Az. Time Alt. Az. Time Alt. Az.
01 Jul ? 01:36:36 10° NNE 01:42:47 20° NNW 01:49:25 10° NW visible
01 Jul ? 03:28:25 10° NE 03:34:06 19° NNE 03:40:16 10° NNW visible
01 Jul ? 23:07:16 10° NNE 23:16:35 44° NW 23:26:37 10° WSW visible
02 Jul ? 01:02:03 10° NNE 01:08:59 23° NNW 01:16:23 10° WNW visible
02 Jul ? 02:54:46 10° NE 03:00:20 18° N 03:06:19 10° NNW visible
02 Jul ? 22:32:18 10° NNE 22:42:14 57° NW 22:52:48 10° SW visible
03 Jul ? 00:27:19 10° NNE 00:35:04 27° NNW 00:43:21 10° W visible
03 Jul ? 02:20:52 10° NNE 02:26:37 18° N 02:32:45 10° NW visible
03 Jul ? 23:52:30 10° NNE 00:01:03 33° NW 00:10:09 10° W visible
04 Jul ? 01:46:40 10° NNE 01:52:52 19° NNW 01:59:28 10° NW visible
04 Jul ? 03:38:08 10° NE 03:44:09 20° NNE 03:50:41 10° NNW visible
04 Jul ? 23:17:37 10° NNE 23:26:54 41° NW 23:36:45 10° WSW visible
05 Jul ? 01:12:14 10° NNE 01:19:05 22° NNW 01:26:23 10° WNW visible
05 Jul ? 03:04:33 10° NE 03:10:23 19° N 03:16:38 10° NNW visible
05 Jul ? 22:42:40 10° NNE 22:52:36 53° NW 23:03:01 10° WSW visible
06 Jul ? 00:37:35 10° NNE 00:45:14 26° NNW 00:53:20 10° WNW visible
06 Jul ? 02:30:47 10° NE 02:36:40 18° N 02:42:55 10° NW visible
07 Jul ? 00:02:49 10° NNE 00:11:16 31° NW 00:20:11 10° W visible
07 Jul ? 01:56:42 10° NNE 02:02:57 19° N 02:09:32 10° NW visible
07 Jul ? 03:47:50 10° ENE 03:54:12 21° NNE 04:01:06 10° NNW visible
07 Jul ? 23:27:58 10° NNE 23:37:10 39° NW 23:46:50 10° WSW visible
08 Jul ? 01:22:22 10° NNE 01:29:11 21° NNW 01:36:23 10° WNW visible
08 Jul ? 03:14:20 10° NE 03:20:25 19° N 03:26:57 10° NNW visible
08 Jul ? 22:53:04 10° NNE 23:02:56 49° NW 23:13:11 10° WSW visible
09 Jul ? 00:47:49 10° NNE 00:55:22 25° NNW 01:03:19 10° WNW visible
09 Jul ? 02:40:39 10° NE 02:46:42 19° N 02:53:07 10° NW visible
09 Jul ? 22:18:09 10° NNE 22:28:32 63° WNW 22:39:12 10° SW visible
10 Jul ? 00:13:07 10° NNE 00:21:27 30° NNW 00:30:11 10° W visible
10 Jul ? 02:06:43 10° NNE 02:13:00 19° N 02:19:37 10° NW visible
10 Jul ? 23:38:18 10° NNE 23:47:25 36° NW 23:56:52 10° W visible
